Tongxin Jishu Shiyan 5

operational
NORAD ID: 44978 Int'l Des: 2020-002 Owner: CASC Country: CN
HEOCIRCULARGSO

关于 Tongxin Jishu Shiyan 5

正在加载描述...

实时位置

正在加载3D地球...

即将过境

高度历史

Altitude vs Time

uPlot chart will show altitude changes over time

两行轨道根数

1 44978U 20002A 26063.16086503 -.00000355 00000-0 00000+0 0 9995
2 44978 0.2799 269.7634 0004140 121.2155 296.3676 1.00272565 22656
Epoch: Mar 4, 2026 • Age: 18 hours

当前状态

高度 35801.8 km
速度 3.07 km/s
星下点 -0.26°S, 107.56°E
发射日期 Jan 7, 2020
运行时间 6.1 years
类型 other

技术详情

分类 Payload
质量 4000.00 kg
干质量 2500.00 kg
总质量 4000.00 kg
长度 5.00 m
直径 2.50 m
跨度 30.00 m
形状 Box+ 2 panels
制造商 SISE
平台类型 FY-4
阶段状态 In Orbit
所有者/国家 CASC/CN

大型星座

Loading constellations...